Wind_Speed
8 7 5 4 4 4 2 1 0 2 3 4 6 7 6 7 7 7 8 7 7 7 6 6 5 4 4 4 4 4 4 4 3 3 3 3 3 3 3 2 2 2 2 3
10 9 8 7 6 5 4 3 2 2 2 3 4 5 5 5 6 6 6 7 6 6 6 6 5 4 4 4 4 4 4 4 3 2 3 3 4 4 3 2 3 3 3 3
12 11 10 9 8 7 6 4 4 3 3 3 3 3 4 5 5 5 6 6 6 5 5 5 4 4 4 3 2 2 2 3 2 2 2 3 4 4 4 3 4 4 4 4
13 12 11 9 8 7 6 6 5 4 5 4 3 2 3 4 4 5 5 5 5 4 4 3 3 3 3 2 2 2 2 2 3 3 3 4 4 4 4 4 5 5 5 5
12 12 11 10 9 8 7 7 6 5 5 5 3 4 4 5 4 4 4 5 5 4 3 3 3 4 4 4 3 4 4 4 4 5 5 6 5 5 5 6 6 6 6 7
13 12 12 11 10 9 9 8 8 7 6 6 5 6 6 6 6 6 5 6 6 6 5 5 5 6 5 5 4 4 4 4 5 6 7 7 7 7 7 7 7 7 8 9
15 14 14 13 12 11 10 10 10 10 9 7 8 8 8 9 8 7 7 7 7 7 7 7 7 7 6 6 6 5 5 6 7 8 8 8 9 8 8 9 9 9 10 11
17 16 15 15 14 13 13 13 12 12 12 11 11 11 10 11 11 10 9 9 8 7 7 8 9 9 9 9 8 8 8 8 9 9 10 10 10 10 10 10 11 12 12 12
17 17 16 16 15 15 15 15 14 14 14 14 14 13 12 12 12 12 11 11 10 9 9 9 10 11 11 11 10 10 10 10 10 11 11 12 13 13 13 13 14 14 15 15
18 17 17 17 17 16 16 16 16 16 17 17 16 15 14 13 13 13 14 13 12 12 12 12 13 14 14 13 12 12 12 13 13 13 13 14 14 14 15 15 16 17 16 16
20 19 19 19 19 19 19 19 19 19 20 20 19 18 16 15 14 15 15 15 15 15 15 15 15 16 16 15 15 14 15 15 15 15 15 15 15 15 15 16 16 17 17 17
21 21 21 21 21 21 22 22 22 22 22 21 21 20 18 18 17 17 16 17 16 17 17 17 17 17 18 17 17 18 18 18 17 16 16 16 17 17 17 17 17 18 18 19
21 21 22 22 23 23 23 23 23 22 23 23 23 21 19 20 20 20 19 19 18 18 19 19 20 20 20 20 20 20 21 20 19 19 19 19 19 19 19 19 20 20 21 21
22 23 23 23 24 25 25 25 25 25 25 25 24 23 21 21 21 21 21 21 20 20 21 21 21 22 23 22 22 22 22 22 22 21 21 21 21 21 22 21 22 22 22 22
24 25 24 24 24 25 27 27 27 26 26 26 24 24 23 22 22 22 22 22 22 22 22 22 22 23 24 24 24 24 23 24 24 24 23 23 23 23 24 24 23 23 23 23
25 26 26 26 26 27 27 27 28 29 28 27 26 26 25 25 23 23 23 24 23 24 24 25 26 25 26 26 26 26 25 26 26 26 25 25 25 25 25 25 25 25 25 24
26 26 26 27 28 29 29 27 28 29 29 28 28 27 27 26 25 24 24 24 24 25 26 26 27 26 27 28 28 28 27 28 28 28 28 28 28 27 27 27 27 27 27 26
27 26 26 27 28 30 28 27 27 28 28 28 29 28 28 28 28 27 25 25 25 26 26 27 27 27 28 28 29 29 30 29 29 29 29 29 29 29 29 29 28 28 28 28
27 26 27 27 28 28 26 26 27 27 28 28 29 28 29 29 28 27 26 26 27 27 28 28 29 29 29 30 30 31 31 30 30 30 30 30 30 31 31 31 30 30 29 30
26 27 28 28 29 28 27 27 28 28 28 28 28 28 29 29 29 28 27 27 28 28 28 28 29 29 30 30 31 30 30 30 30 31 31 31 32 32 32 32 32 31 31 31
26 27 28 28 28 28 27 26 26 27 26 26 27 27 28 29 29 28 28 28 29 28 28 29 28 28 29 30 30 30 30 30 30 31 32 32 33 33 33 33 33 32 32 32
27 27 27 27 28 28 26 26 26 27 27 27 27 27 28 29 29 30 29 29 30 30 29 29 30 30 30 30 31 31 30 30 31 31 32 32 33 32 32 33 34 34 33 34
27 27 27 27 27 27 27 27 27 27 27 27 27 28 29 29 29 29 29 30 31 31 30 30 31 31 31 30 30 30 30 31 31 32 32 33 33 32 33 34 33 34 34 34
27 28 28 28 27 27 27 27 27 27 27 27 28 28 29 28 28 29 30 30 31 31 31 32 31 31 30 30 30 30 31 32 32 32 32 33 33 33 34 33 33 33 34 34
27 27 28 27 26 26 26 26 26 27 27 27 27 28 27 28 28 28 29 30 31 31 31 32 31 30 30 30 30 30 30 31 32 32 33 33 33 33 33 32 32 33 34 34
27 27 27 27 27 26 25 26 26 26 26 26 26 27 27 27 28 28 29 29 29 30 31 31 30 29 29 30 29 29 29 30 31 32 32 33 32 32 32 32 32 33 34 35
Wind_Direction
214 220 225 214 212 221 216 233 338 14 358 11 21 32 27 23 29 34 37 43 51 54 56 62 65 64 65 67 68 65 62 59 46 31 26 26 17 12 6 3 11 4 353 343
215 219 221 227 230 227 223 235 264 290 315 333 360 18 21 21 21 20 30 36 45 52 51 51 51 57 63 69 74 66 60 52 38 23 6 359 351 351 346 339 338 331 332 334
217 217 220 226 228 236 235 236 254 266 276 295 326 355 5 10 15 17 25 28 34 43 45 41 37 37 43 46 48 48 35 28 11 349 341 341 337 332 327 319 315 313 310 317
218 218 221 224 228 238 243 248 250 249 255 269 294 318 342 351 360 2 8 8 11 22 26 20 8 359 356 347 339 322 332 333 323 323 316 316 321 319 313 310 310 308 305 309
220 222 224 227 228 235 241 242 245 246 251 258 279 294 317 326 329 335 340 340 337 336 350 352 344 337 327 315 303 296 299 301 302 303 302 301 305 297 296 299 300 301 303 306
223 227 229 229 229 236 238 239 246 251 256 262 269 284 301 309 306 306 311 317 319 317 319 321 322 321 317 311 297 286 287 292 298 301 303 302 301 296 290 292 297 297 298 303
223 227 231 230 230 235 237 243 252 254 260 268 272 281 292 295 298 298 298 305 308 305 300 302 305 303 300 298 296 283 283 291 295 298 299 297 297 297 293 292 289 294 296 300
226 227 231 234 233 234 237 245 256 261 263 268 272 281 285 287 287 289 291 293 299 295 293 291 295 296 294 295 295 288 283 289 293 295 292 293 291 289 289 288 288 290 291 293
229 229 233 237 237 242 242 247 256 263 267 270 274 279 282 283 285 286 288 287 291 292 290 292 297 299 298 296 294 293 288 286 288 290 290 293 289 285 284 284 285 287 289 292
234 233 236 240 242 245 249 252 257 262 271 275 276 280 284 283 285 287 287 286 291 293 289 290 291 291 294 295 290 292 290 285 285 287 288 290 293 290 285 287 285 286 290 291
239 240 242 245 246 248 250 253 256 263 270 274 277 279 284 286 285 283 283 285 287 291 291 289 289 292 293 291 286 286 288 289 286 285 287 286 290 291 291 291 288 289 291 293
241 243 246 248 250 249 251 255 259 262 269 272 275 278 281 283 282 282 281 282 284 286 286 287 287 288 289 290 288 288 286 289 291 293 292 289 288 286 286 289 291 293 294 294
243 246 249 250 250 252 254 257 259 263 266 269 272 276 278 280 280 280 280 280 281 284 285 287 288 288 287 289 290 289 288 287 288 288 291 289 287 284 283 285 287 290 291 292
249 249 251 253 255 255 257 259 260 263 266 268 270 274 277 278 280 281 281 281 283 284 286 286 287 286 287 287 288 288 286 287 286 285 287 287 287 285 285 285 284 286 288 289
252 251 251 252 254 255 255 258 260 263 266 267 269 273 278 278 280 280 280 280 280 282 285 286 286 285 285 286 288 289 287 290 289 286 286 287 287 286 286 287 285 284 287 289
256 256 254 253 255 256 257 258 261 263 265 266 267 270 276 278 279 278 277 278 279 282 284 284 284 284 284 285 285 287 288 289 289 289 289 287 286 285 286 288 287 285 287 288
259 259 258 258 259 260 260 260 260 262 264 265 266 269 273 274 277 278 278 277 279 282 283 283 283 280 282 282 283 284 285 287 287 289 291 290 288 285 286 287 288 288 288 289
260 261 261 262 262 262 264 262 262 263 263 263 264 268 271 274 275 278 278 279 280 282 283 285 284 284 283 283 281 281 283 285 286 288 288 289 288 286 286 287 288 288 288 289
258 260 262 264 264 264 262 263 263 264 263 264 266 268 270 273 274 276 279 280 280 281 283 285 285 282 283 283 282 281 282 283 285 286 287 287 287 287 287 287 286 287 288 289
259 260 261 264 266 263 264 264 265 266 266 267 269 269 269 270 272 275 277 278 279 281 282 284 285 284 284 284 283 282 284 285 285 285 285 285 285 286 286 286 286 286 287 287
259 261 262 264 265 265 267 267 267 266 268 268 269 270 270 270 272 274 274 276 279 280 282 284 285 286 284 284 285 285 286 287 285 284 283 283 284 284 284 286 286 286 286 286
257 259 261 263 265 266 267 267 266 268 268 268 269 270 271 271 272 273 275 277 279 281 282 284 286 287 287 287 287 287 286 285 284 284 285 284 283 284 285 286 286 285 287 288
256 258 261 263 267 269 266 266 267 268 268 268 268 270 273 273 273 274 276 277 278 280 281 283 286 288 287 287 287 288 288 288 287 286 286 285 285 285 286 286 286 287 288 288
259 260 261 263 266 268 266 267 266 267 268 268 269 271 273 275 276 276 277 278 279 280 282 283 285 286 286 287 287 288 288 287 287 288 288 288 288 286 287 287 287 288 288 288
260 261 263 265 267 268 269 270 269 268 267 270 272 272 274 276 276 277 278 278 280 281 283 286 287 288 288 288 288 287 287 288 290 290 289 289 289 288 287 288 288 288 288 289
259 261 263 264 265 266 268 269 270 269 268 270 272 273 273 275 277 278 280 281 282 284 285 286 289 289 288 288 288 289 289 290 291 291 291 291 291 290 289 289 289 289 291 292
Height
5912 5914 5914 5915 5915 5916 5916 5916 5916 5916 5915 5914 5914 5913 5913 5912 5911 5910 5909 5908 5907 5906 5905 5904 5904 5903 5903 5902 5902 5901 5901 5900 5900 5899 5899 5899 5898 5898 5897 5897 5897 5896 5896 5895
5912 5913 5914 5914 5915 5915 5915 5915 5916 5916 5915 5915 5914 5914 5913 5913 5912 5911 5910 5909 5908 5907 5906 5905 5904 5903 5903 5903 5902 5901 5901 5901 5900 5900 5899 5899 5898 5898 5897 5897 5896 5896 5895 5894
5910 5912 5912 5913 5914 5914 5914 5915 5915 5915 5915 5915 5915 5915 5914 5914 5913 5912 5911 5910 5909 5907 5906 5906 5905 5904 5903 5903 5902 5902 5901 5901 5900 5900 5899 5898 5898 5897 5897 5896 5896 5895 5894 5894
5909 5910 5911 5912 5913 5913 5914 5914 5914 5914 5914 5915 5915 5915 5914 5914 5913 5912 5912 5911 5909 5908 5907 5906 5905 5904 5904 5903 5902 5901 5901 5900 5900 5899 5899 5898 5897 5896 5896 5895 5895 5894 5894 5893
5907 5909 5910 5911 5912 5912 5913 5913 5913 5914 5914 5914 5914 5914 5915 5913 5913 5913 5912 5911 5910 5908 5907 5906 5905 5904 5903 5902 5901 5901 5900 5899 5899 5898 5898 5897 5896 5895 5894 5894 5893 5893 5892 5891
5906 5907 5908 5909 5910 5910 5911 5912 5912 5912 5913 5914 5913 5913 5913 5913 5912 5912 5911 5910 5909 5908 5907 5906 5904 5903 5902 5901 5900 5899 5899 5898 5897 5897 5896 5895 5894 5894 5893 5892 5892 5891 5890 5889
5904 5905 5906 5907 5908 5909 5909 5910 5911 5911 5911 5912 5912 5912 5912 5911 5911 5910 5910 5909 5908 5907 5906 5905 5903 5902 5901 5900 5898 5898 5897 5897 5896 5895 5894 5894 5893 5892 5891 5890 5889 5889 5888 5887
5901 5903 5904 5905 5906 5907 5907 5908 5910 5910 5910 5910 5910 5910 5911 5910 5909 5909 5908 5908 5907 5906 5904 5903 5902 5900 5899 5898 5897 5896 5896 5895 5894 5893 5893 5892 5890 5889 5888 5888 5887 5886 5885 5884
5899 5901 5902 5902 5903 5904 5905 5906 5907 5907 5907 5907 5908 5908 5909 5908 5907 5906 5906 5905 5905 5904 5903 5901 5900 5898 5897 5896 5895 5894 5893 5892 5892 5891 5890 5889 5888 5887 5886 5885 5884 5882 5881 5880
5896 5898 5899 5900 5901 5901 5903 5903 5904 5904 5904 5903 5904 5905 5906 5905 5905 5904 5903 5902 5902 5901 5900 5899 5897 5896 5894 5893 5892 5891 5889 5889 5888 5887 5887 5886 5884 5883 5882 5881 5880 5879 5877 5876
5892 5894 5895 5896 5897 5898 5899 5900 5900 5900 5900 5900 5900 5903 5902 5902 5901 5901 5900 5900 5899 5898 5897 5895 5894 5892 5892 5890 5889 5888 5886 5885 5884 5883 5882 5881 5880 5879 5878 5877 5876 5875 5873 5872
5887 5889 5890 5892 5893 5894 5895 5895 5896 5897 5897 5896 5896 5900 5898 5898 5897 5897 5897 5896 5895 5894 5893 5892 5891 5890 5888 5887 5886 5885 5883 5882 5881 5879 5878 5877 5876 5875 5874 5873 5871 5870 5869 5867
5883 5885 5886 5888 5890 5890 5890 5890 5891 5892 5892 5892 5892 5895 5894 5893 5893 5893 5892 5892 5891 5891 5890 5889 5887 5886 5884 5883 5882 5881 5879 5877 5876 5875 5874 5872 5871 5870 5869 5867 5866 5865 5863 5861
5878 5880 5882 5883 5883 5884 5885 5885 5886 5887 5886 5886 5887 5888 5889 5888 5888 5888 5887 5887 5886 5886 5885 5884 5883 5881 5880 5878 5877 5875 5874 5873 5871 5870 5868 5867 5865 5864 5863 5861 5860 5858 5857 5855
5873 5874 5875 5876 5877 5878 5879 5880 5880 5881 5881 5881 5882 5882 5883 5883 5883 5882 5882 5881 5881 5880 5879 5878 5877 5876 5874 5873 5871 5870 5869 5867 5866 5865 5863 5861 5860 5858 5857 5855 5854 5852 5851 5849
5867 5868 5869 5870 5871 5871 5872 5874 5874 5875 5875 5875 5876 5877 5877 5877 5877 5877 5876 5875 5875 5874 5874 5873 5871 5870 5868 5867 5865 5864 5863 5861 5860 5859 5857 5855 5854 5852 5850 5848 5847 5845 5844 5842
5861 5862 5863 5864 5865 5865 5866 5868 5868 5868 5869 5870 5870 5872 5871 5871 5871 5870 5870 5869 5868 5868 5867 5865 5864 5863 5861 5860 5859 5858 5856 5854 5853 5852 5850 5848 5846 5845 5843 5841 5840 5838 5837 5835
5855 5856 5856 5857 5859 5858 5863 5861 5862 5862 5863 5863 5864 5864 5864 5864 5864 5864 5863 5862 5862 5861 5859 5858 5856 5855 5854 5853 5851 5850 5849 5847 5846 5844 5843 5841 5839 5837 5836 5834 5833 5831 5829 5828
5849 5850 5850 5851 5851 5852 5854 5854 5854 5855 5856 5857 5857 5857 5857 5857 5857 5857 5856 5855 5854 5853 5852 5850 5849 5848 5846 5845 5844 5842 5841 5839 5838 5836 5835 5833 5831 5830 5828 5826 5824 5823 5821 5820
5842 5843 5844 5844 5844 5845 5848 5848 5847 5849 5849 5850 5849 5850 5849 5849 5850 5850 5849 5848 5847 5846 5844 5843 5841 5840 5838 5837 5835 5834 5833 5831 5830 5828 5827 5825 5823 5822 5820 5818 5816 5814 5813 5811
5836 5836 5837 5837 5837 5838 5840 5841 5841 5842 5843 5843 5842 5842 5841 5841 5842 5842 5840 5840 5839 5838 5837 5835 5834 5832 5830 5829 5828 5826 5824 5823 5821 5820 5818 5816 5814 5812 5811 5809 5807 5805 5804 5802
5829 5829 5830 5831 5831 5834 5833 5834 5835 5834 5834 5835 5834 5834 5834 5834 5833 5833 5832 5832 5831 5830 5829 5827 5826 5824 5822 5820 5819 5818 5816 5814 5812 5811 5809 5807 5805 5803 5801 5800 5798 5796 5794 5793
5821 5823 5823 5825 5827 5826 5826 5826 5827 5827 5827 5827 5827 5827 5826 5826 5825 5825 5824 5824 5823 5822 5820 5819 5817 5816 5814 5811 5809 5808 5806 5804 5802 5801 5799 5797 5795 5793 5792 5790 5788 5786 5784 5783
5814 5815 5816 5817 5818 5818 5819 5819 5819 5819 5820 5820 5819 5819 5819 5818 5818 5817 5816 5815 5814 5813 5812 5810 5809 5807 5804 5802 5800 5799 5797 5794 5792 5791 5789 5787 5785 5783 5782 5780 5779 5777 5775 5772
5807 5808 5808 5810 5811 5811 5812 5812 5812 5812 5812 5812 5812 5811 5811 5810 5810 5809 5808 5807 5806 5805 5803 5801 5799 5797 5795 5793 5792 5789 5787 5785 5783 5781 5779 5778 5776 5773 5772 5771 5769 5767 5764 5762
5799 5800 5801 5803 5804 5804 5805 5805 5805 5805 5805 5805 5804 5804 5803 5803 5802 5801 5800 5799 5797 5796 5794 5793 5791 5789 5786 5784 5783 5781 5778 5776 5774 5772 5770 5768 5767 5764 5763 5761 5759 5757 5755 5752